Regional Weather Roundup
Issued by NWS Jackson, KY

Home | Current Version | Previous Version | Graphics & Text | Print | Product List | Glossary On
Versions: 1 2 3 4 5 6 7 8 9 10 11 12 13 14 15 16 17 18 19 20 21 22 23 24 25 26 27 28 29 30 31 32 33 34 35 36 37 38 39 40 41 42 43 44 45 46 47 48 49 50
000
ASUS43 KJKL 130810
RWRJKL

EAST KENTUCKY HOURLY WEATHER ROUNDUP
NATIONAL WEATHER SERVICE JACKSON KY
400 AM EDT SUN JUL 13 2014

NOTE: "FAIR" INDICATES FEW OR NO CLOUDS BELOW 12,000 FEET WITH
NO SIGNIFICANT WEATHER AND/OR OBSTRUCTIONS TO VISIBILITY.

* THESE REPORTS ARE NOT UNDER NWS QUALITY CONTROL AND MAY NOT
  REPORT WEATHER SUCH AS PRECIPITATION AND FOG.

KYZ079-080-083-085-087-088-110-112-115-119-120-130900
...EASTERN KENTUCKY...

CITY           SKY/WX    TMP DP  RH WIND       PRES   REMARKS
JACKSON        CLOUDY    74  62  66 VRB3      30.10F
LONDON         MOCLDY    71  63  75 CALM      30.10F
SOMERSET*      CLOUDY    72  64  78 CALM      30.10S
MONTICELLO*    CLOUDY    68  66  93 CALM      30.10F
MIDDLESBORO*   CLEAR     66  64  94 CALM      30.13F
HARLAN APT*    MOSUNNY   64  63  94 MISG      30.15F
BIG SANDY*     PTSUNNY   73  64  72 S3        30.10F
MOREHEAD APT*    N/A     75  63  64 S5        30.08F
$$

KYZ035-036-041-042-044-050-067-078-099-130900
...CENTRAL KENTUCKY...

CITY           SKY/WX    TMP DP  RH WIND       PRES   REMARKS
MT STERLING*   CLOUDY    72  64  78 SW5       30.07F
FLEMING/MASON* CLOUDY    74  65  75 S7        30.05F
DANVILLE*      CLOUDY    72  63  73 SW6       30.07F
RICHMOND*      CLOUDY    75  59  57 S7        30.07F
LEXINGTON      CLOUDY    76  64  66 SW6       30.06F
FRANKFORT      MOCLDY    74  67  78 S3        30.03F
$$

KYZ091>093-OHZ055-061-077-WVZ005-015-034-035-042-130900
...SOUTHERN OHIO/WEST VIRGINIA...

CITY           SKY/WX    TMP DP  RH WIND       PRES   REMARKS
COVINGTON      CLOUDY    75  66  73 S8        30.01F
COLUMBUS       CLOUDY    78  65  63 S9        29.99F
DAYTON         CLOUDY    76  68  76 S10       29.99F
WILMINGTON     CLOUDY    74  65  73 S8        30.01F
HUNTINGTON     CLOUDY    73  63  70 S5        30.05F
CHARLESTON     CLOUDY    69  66  90 CALM      30.06F
PINEVILLE*     CLOUDY    68  67  98 MISG      30.20S
BECKLEY        CLOUDY    72  62  71 SW8       30.19S
BLUEFIELD      CLOUDY    73  62  68 W5        30.22S
$$

VAZ002-007-008-TNZ017-027-036-066-071-130900
...SOUTHWEST VIRGINIA/EAST TENNESSEE...

CITY           SKY/WX    TMP DP  RH WIND       PRES   REMARKS
WISE*          CLOUDY    70  63  78 SW6       30.21F
JONESVILLE*      N/A     64  64 100 CALM      30.17F
ABINGDON*      PTCLDY    70  68  93 CALM      30.19S
BRISTOL        MOCLDY    69  65  86 CALM      30.16F
KNOXVILLE      PTCLDY    72  68  87 CALM      30.11F
OAK RIDGE      CLEAR     74  69  85 CALM      30.13F
CROSSVILLE     CLEAR     70  66  87 CALM      30.16F
NASHVILLE      PTCLDY    73  68  84 S5        30.06F
$$

...KEY TO REMARKS...
VSB - VISIBILITY IN MILES
WCI - WIND CHILL INDEX
HX  - HEAT INDEX

$$


USA.gov is the U.S. government's official web portal to all federal, state and local government web resources and services.